Weather History for Tulsa Jones, OK

Change the Weather History Date:

Wednesday, April 3, 2013

  Actual Average (KTUL) Record (KTUL)
Temperature  
Mean Temperature 42 °F 57 °F  
Max Temperature 44 °F 68 °F 88 °F (1965)
Min Temperature 39 °F 45 °F 23 °F (1975)
Degree Days  
Heating Degree Days 24 9  
Month to date heating degree days 28  
Since 1 July heating degree days 3377  
Cooling Degree Days 0 1  
Month to date cooling degree days 3  
Year to date cooling degree days 15  
Moisture  
Dew Point 34 °F    
Average Humidity 75    
Maximum Humidity 89    
Minimum Humidity 55    
Precipitation  
Precipitation 0.63 in 0.10 in 1.25 in (1978)
Month to date precipitation 0.31  
Year to date precipitation 7.11  
Sea Level Pressure  
Sea Level Pressure 30.23 in    
Wind  
Wind Speed 8 mph (NE)    
Max Wind Speed 14 mph    
Max Gust Speed 22 mph    
Visibility 8 miles    
Events Rain    
T = Trace of Precipitation, MM = Missing Value Source: NWS Daily Summary

Daily Weather History Graph

Daily Weather History Graph

Search for Another Location

Airport:

Trip Planner

Search our weather history database for the weather conditions in past years. The results will help you decide how hot, cold, wet, or windy it might be!

Date:

Astronomy

Apr. 03, 2013 Rise Set
Actual Time 7:06 AM CDT 7:47 PM CDT
Civil Twilight 6:41 AM CDT 8:13 PM CDT
Nautical Twilight 6:10 AM CDT 8:44 PM CDT
Astronomical Twilight 5:39 AM CDT 9:15 PM CDT
Moon 2:36 AM CDT (4/3) 1:12 PM CDT (4/3)
Length of Visible Light 13h 32m
Length of Day
12h 40m
Last Quarter, 44% of the Moon is Illuminated
Apr 3
Last Quarter
Apr 10
New
Apr 18
First Quarter
Apr 25
Full
May 2
Last Quarter

Hourly Weather History & Observations

Time (CDT) Temp. Windchill Dew Point Humidity Pressure Visibility Wind Dir Wind Speed Gust Speed Precip Events Conditions
12:31 AM 39.2 °F 32.0 °F 35.6 °F 87% 30.19 in 10.0 mi ENE 11.5 mph - N/A   Overcast
12:53 AM 39.9 °F 33.4 °F 35.1 °F 83% 30.21 in 10.0 mi NE 10.4 mph - N/A   Overcast
1:53 AM 39.9 °F 33.9 °F 34.0 °F 79% 30.21 in 10.0 mi NE 9.2 mph - 0.00 in Rain Light Rain
2:53 AM 39.9 °F 32.9 °F 32.0 °F 73% 30.19 in 10.0 mi ENE 11.5 mph - 0.00 in   Overcast
3:53 AM 41.0 °F 34.3 °F 32.0 °F 70% 30.19 in 10.0 mi NE 11.5 mph - N/A   Overcast
4:07 AM 41.0 °F 34.3 °F 32.0 °F 70% 30.17 in 10.0 mi NE 11.5 mph - N/A   Overcast
4:53 AM 41.0 °F 35.2 °F 30.9 °F 67% 30.21 in 10.0 mi NE 9.2 mph - N/A   Overcast
5:53 AM 41.0 °F 35.8 °F 30.9 °F 67% 30.22 in 10.0 mi NE 8.1 mph - N/A   Overcast
6:53 AM 41.0 °F 35.8 °F 30.0 °F 65% 30.24 in 10.0 mi NE 8.1 mph - N/A   Overcast
7:53 AM 39.9 °F 32.1 °F 32.0 °F 73% 30.21 in 7.0 mi ENE 13.8 mph - 0.04 in Rain Light Rain
8:53 AM 41.0 °F 35.8 °F 32.0 °F 70% 30.25 in 10.0 mi NE 8.1 mph - 0.03 in Rain Light Rain
9:53 AM 42.1 °F 37.7 °F 30.0 °F 62% 30.26 in 10.0 mi ENE 6.9 mph - 0.00 in Rain Light Rain
10:53 AM 42.1 °F 35.7 °F 28.9 °F 60% 30.27 in 10.0 mi NE 11.5 mph - 0.00 in   Overcast
11:53 AM 43.0 °F 37.7 °F 28.9 °F 58% 30.27 in 10.0 mi NE 9.2 mph - 0.00 in Rain Light Rain
12:53 PM 44.1 °F 38.1 °F 28.9 °F 55% 30.26 in 10.0 mi NNE 11.5 mph - 0.00 in   Overcast
1:53 PM 41.0 °F 33.5 °F 32.0 °F 70% 30.25 in 10.0 mi NNE 13.8 mph 21.9 mph 0.04 in Rain Light Rain
2:21 PM 39.2 °F 34.2 °F 33.8 °F 81% 30.25 in 1.8 mi North 6.9 mph - 0.02 in Rain Rain
2:34 PM 39.2 °F 37.0 °F 33.8 °F 81% 30.24 in 2.5 mi North 3.5 mph - 0.06 in Rain Rain
2:43 PM 39.2 °F - 33.8 °F 81% 30.24 in 5.0 mi Calm Calm - 0.06 in Rain Light Rain
2:53 PM 41.0 °F - 35.1 °F 79% 30.26 in 5.0 mi Calm Calm - 0.07 in Rain Rain
3:53 PM 41.0 °F - 37.0 °F 86% 30.23 in 2.5 mi Calm Calm - 0.12 in Rain Rain
4:01 PM 42.8 °F - 37.4 °F 81% 30.21 in 5.0 mi Calm Calm - 0.01 in Rain Light Rain
4:53 PM 43.0 °F - 35.1 °F 74% 30.24 in 10.0 mi Calm Calm - 0.05 in Rain Light Rain
5:53 PM 43.0 °F - 36.0 °F 76% 30.24 in 10.0 mi Calm Calm - 0.00 in   Overcast
6:53 PM 43.0 °F 41.3 °F 36.0 °F 76% 30.23 in 10.0 mi North 3.5 mph - N/A   Overcast
7:53 PM 42.1 °F 40.2 °F 37.0 °F 82% 30.23 in 7.0 mi North 3.5 mph - 0.04 in Rain Light Rain
8:53 PM 41.0 °F 39.0 °F 37.0 °F 86% 30.23 in 6.0 mi North 3.5 mph - 0.05 in Rain Rain
9:53 PM 39.9 °F 35.1 °F 37.0 °F 89% 30.24 in 8.0 mi North 6.9 mph - 0.12 in Rain Light Rain
10:53 PM 39.9 °F 36.7 °F 37.0 °F 89% 30.24 in 8.0 mi North 4.6 mph - 0.01 in Rain Light Rain
11:53 PM 39.9 °F 37.8 °F 37.0 °F 89% 30.22 in 6.0 mi North 3.5 mph - 0.06 in Rain Rain